Regional Weather Roundup
Issued by NWS Jackson, KY

Home | Current Version | Previous Version | Graphics & Text | Print | Product List | Glossary On
Versions: 1 2 3 4 5 6 7 8 9 10 11 12 13 14 15 16 17 18 19 20 21 22 23 24 25 26 27 28 29 30 31 32 33 34 35 36 37 38 39 40 41 42 43 44 45 46 47 48 49 50
000
ASUS43 KJKL 261205
RWRJKL

EAST KENTUCKY HOURLY WEATHER ROUNDUP
NATIONAL WEATHER SERVICE JACKSON KY
800 AM EDT SAT JUL 26 2014

NOTE: "FAIR" INDICATES FEW OR NO CLOUDS BELOW 12,000 FEET WITH
NO SIGNIFICANT WEATHER AND/OR OBSTRUCTIONS TO VISIBILITY.

* THESE REPORTS ARE NOT UNDER NWS QUALITY CONTROL AND MAY NOT
  REPORT WEATHER SUCH AS PRECIPITATION AND FOG.

KYZ079-080-083-085-087-088-110-112-115-119-120-261300
...EASTERN KENTUCKY...

CITY           SKY/WX    TMP DP  RH WIND       PRES   REMARKS
JACKSON        PTSUNNY   63  61  93 CALM      30.05S FOG
6HR MIN TEMP:  61; 6HR MAX TEMP:  65;

LONDON         SUNNY     64  61  90 SE3       30.06S
6HR MIN TEMP:  62; 6HR MAX TEMP:  65;

SOMERSET*      SUNNY     64  64 100 CALM      30.05S
MONTICELLO*    SUNNY     65  63  93 CALM      30.05S FOG
6HR MIN TEMP:  60; 6HR MAX TEMP:  65;

WILLIAMSBURG*    N/A     63  63 100 CALM      30.06S
MIDDLESBORO*   FOG       62  62 100 CALM      30.09S VSB 1/2
6HR MIN TEMP:  61; 6HR MAX TEMP:  63;

HARLAN APT*    CLOUDY    61  61 100 MISG      30.09S VSB<1/4
BLACK MTN*       N/A     61  55  82 E2          N/A
PIKEVILLE APT* SUNNY     63  61  94 S5        30.07  FOG
BIG SANDY*     MOSUNNY   65  63  92 CALM      30.06R
6HR MIN TEMP:  61; 6HR MAX TEMP:  67;

MOREHEAD APT*    N/A     64  63  94 CALM      30.04F
$$

KYZ035-036-041-042-044-050-067-078-099-261300
...CENTRAL KENTUCKY...

CITY           SKY/WX    TMP DP  RH WIND       PRES   REMARKS
MT STERLING*   SUNNY     66  61  82 SW3       30.03S
FLEMING/MASON* MOSUNNY   65  61  85 S6        30.02S
DANVILLE*      SUNNY     63  61  94 SW5       30.04R
RICHMOND*      SUNNY     66  61  82 S3        30.03S
LEXINGTON      SUNNY     67  61  81 S7        30.01F
6HR MIN TEMP:  63; 6HR MAX TEMP:  69;

FRANKFORT      MOSUNNY   67  61  81 S7        29.99S
6HR MIN TEMP:  63; 6HR MAX TEMP:  69;

$$

KYZ091>093-OHZ055-061-077-WVZ005-015-034-035-042-261300
...SOUTHERN OHIO/WEST VIRGINIA...

CITY           SKY/WX    TMP DP  RH WIND       PRES   REMARKS
COVINGTON      MOSUNNY   68  62  81 S7        29.97S
COLUMBUS       MOSUNNY   70  60  70 S5        29.97F
DAYTON         PTSUNNY   69  61  75 S9        29.97S
WILMINGTON     MOSUNNY   67  61  81 S5        29.98S
HUNTINGTON     CLOUDY    64  62  93 CALM      30.02S
CHARLESTON     MOSUNNY   64  63  96 CALM      30.04S
PINEVILLE*     SUNNY     61  61 100 MISG      30.14R
BECKLEY        MOSUNNY   64  60  87 CALM      30.11R
BLUEFIELD      PTSUNNY   66  58  75 W6        30.13R
$$

VAZ002-007-008-TNZ017-027-036-066-071-261300
...SOUTHWEST VIRGINIA/EAST TENNESSEE...

CITY           SKY/WX    TMP DP  RH WIND       PRES   REMARKS
WISE*          SUNNY     66  57  72 CALM      30.14S
JONESVILLE*    FOG       59  59 100 CALM      30.11R VSB<1/4
ABINGDON*      MOSUNNY   66  64  92 CALM      30.11S
BRISTOL        MOSUNNY   66  62  87 CALM      30.09R
KNOXVILLE      PTSUNNY   66  63  90 NE3       30.06R
OAK RIDGE      FOG       64  64 100 CALM      30.08R VSB 1/4
CROSSVILLE     SUNNY     65  60  84 CALM      30.09R
NASHVILLE      MOSUNNY   67  64  90 CALM      30.03R
$$

...KEY TO REMARKS...
VSB - VISIBILITY IN MILES
WCI - WIND CHILL INDEX
HX  - HEAT INDEX

$$



USA.gov is the U.S. government's official web portal to all federal, state and local government web resources and services.